Le nostre stazioni meteo in Italia

Pubblicità
Il mio iltempo24.it
Catania/Fontanarossa, Italia (16460): Temperatura & dewpoint: 09.10.2019 12:00:00 - 15.10.2019 12:00:00 (CEST)Catania/Fontanarossa, Italia (16460): velocità del vento: 09.10.2019 12:00:00 - 15.10.2019 12:00:00 (CEST)Catania/Fontanarossa, Italia (16460): direzione del vento: 09.10.2019 12:00:00 - 15.10.2019 12:00:00 (CEST)Catania/Fontanarossa, Italia (16460): reduced air pressure: 09.10.2019 12:00:00 - 15.10.2019 12:00:00 (CEST)Catania/Fontanarossa, Italia (16460): visibility: 09.10.2019 12:00:00 - 15.10.2019 12:00:00 (CEST)Catania/Fontanarossa, Italia (16460): precipitazioni: 09.10.2019 12:00:00 - 15.10.2019 12:00:00 (CEST)
Data & Tempo tt [°C] td [°C] ff [km/h] ff [kn] dd ppp [hPa] vv [km] rr [mm]
15.10.2019 12:00:00 26,0 17,0 15 8 O - 10 -
15.10.2019 11:00:00 24,8 17,2 15 8 OSO 1019,5 10 0,0
15.10.2019 10:00:00 21,0 17,0 16 9 OSO - 10 -
15.10.2019 09:00:00 18,0 16,0 11 6 OSO - 10 -
15.10.2019 08:00:00 16,7 15,7 15 8 SO 1019,4 5 -
15.10.2019 07:00:00 17,0 16,0 16 9 OSO - 10 -
15.10.2019 06:00:00 16,0 16,0 9 5 OSO - 10 -
15.10.2019 05:00:00 16,6 16,1 11 6 OSO 1019,4 10 0,0
15.10.2019 04:00:00 18,0 17,0 11 6 OSO - 10 -
15.10.2019 03:00:00 17,0 17,0 9 5 O - 10 -
15.10.2019 02:00:00 17,9 17,1 9 5 SSO 1019,9 10 -
15.10.2019 01:00:00 18,0 17,0 9 5 O - 10 -
15.10.2019 00:00:00 19,0 18,0 8 4 OSO - 10 -
14.10.2019 23:00:00 20,7 18,7 4 2 O 1020,5 10 0,0
14.10.2019 22:00:00 22,0 19,0 2 1 - - 10 -
14.10.2019 21:00:00 22,0 19,0 4 2 SSE - 10 -
14.10.2019 20:00:00 22,3 19,2 8 4 SE 1020,4 10 -
14.10.2019 19:00:00 23,0 19,0 9 5 ESE - 10 -
14.10.2019 18:00:00 23,0 19,0 13 7 E - 10 -
14.10.2019 17:00:00 23,5 19,0 16 9 ESE 1020,2 10 0,0
14.10.2019 16:00:00 25,0 19,0 16 9 E - 10 -
14.10.2019 15:00:00 25,0 19,0 16 9 ESE - 10 -
14.10.2019 14:00:00 24,8 18,7 15 8 E 1021,1 10 -
14.10.2019 13:00:00 25,0 17,0 15 8 E - 10 -
14.10.2019 12:00:00 25,0 17,0 13 7 E - 10 -
14.10.2019 11:00:00 25,0 16,1 8 4 SSO 1022,6 10 0,0
14.10.2019 10:00:00 23,0 16,0 9 5 OSO - 10 -
14.10.2019 09:00:00 19,0 16,0 9 5 OSO - 10 -
14.10.2019 08:00:00 16,7 15,6 8 4 O 1022,1 10 -
14.10.2019 07:00:00 16,0 15,0 11 6 O - 10 -
14.10.2019 06:00:00 17,0 15,0 8 4 OSO - 10 -
14.10.2019 05:00:00 16,6 15,7 8 4 SO 1021,8 10 0,0
14.10.2019 04:00:00 17,0 17,0 9 5 OSO - 10 -
14.10.2019 03:00:00 19,0 18,0 5 3 OSO - 10 -
14.10.2019 02:00:00 18,6 17,6 4 2 O 1022,6 10 -
14.10.2019 01:00:00 19,0 18,0 5 3 O - 10 -
14.10.2019 00:00:00 19,0 18,0 5 3 ONO - 10 -
13.10.2019 23:00:00 20,6 19,1 4 2 - 1023,4 10 0,0
13.10.2019 22:00:00 21,0 20,0 4 2 E - 10 -
13.10.2019 21:00:00 22,0 20,0 8 4 E - 10 -
13.10.2019 20:00:00 22,2 19,1 11 6 E 1022,6 10 -
13.10.2019 19:00:00 23,0 19,0 9 5 E - 10 -
13.10.2019 18:00:00 24,0 19,0 13 7 E - 10 -
13.10.2019 17:00:00 24,4 18,1 15 8 E 1022,0 10 0,0
13.10.2019 16:00:00 25,0 17,0 15 8 E - 10 -
13.10.2019 15:00:00 26,0 17,0 13 7 E - 10 -
13.10.2019 14:00:00 26,0 17,5 13 7 E 1022,8 10 -
13.10.2019 13:00:00 26,0 18,0 13 7 E - 10 -
13.10.2019 12:00:00 25,0 18,0 9 5 ENE - 10 -
13.10.2019 11:00:00 25,0 17,6 2 1 - 1023,9 10 0,0
13.10.2019 10:00:00 23,0 17,0 8 4 OSO - 10 -
13.10.2019 09:00:00 20,0 16,0 9 5 O - 10 -
13.10.2019 08:00:00 17,6 15,8 8 4 O 1023,3 10 -
13.10.2019 07:00:00 17,0 16,0 9 5 O - 10 -
13.10.2019 06:00:00 17,0 16,0 13 7 O - 10 -
13.10.2019 05:00:00 17,4 16,6 5 3 ONO 1022,7 10 0,0
13.10.2019 04:00:00 18,0 17,0 11 6 SSO - 10 -
13.10.2019 03:00:00 18,0 17,0 8 4 OSO - 10 -
13.10.2019 02:00:00 18,6 17,6 8 4 O 1023,5 10 -
13.10.2019 01:00:00 20,0 19,0 8 4 O - 10 -
13.10.2019 00:00:00 22,0 19,0 4 2 - - 10 -
12.10.2019 23:00:00 22,4 19,9 5 3 NNE 1024,0 10 0,0
12.10.2019 22:00:00 22,0 20,0 8 4 E - 10 -
12.10.2019 21:00:00 22,0 20,0 8 4 E - 10 -
12.10.2019 20:00:00 22,7 20,1 9 5 E 1023,4 10 -
12.10.2019 19:00:00 23,0 20,0 11 6 E - 10 -
12.10.2019 18:00:00 24,0 20,0 13 7 E - 10 -
12.10.2019 17:00:00 23,9 19,7 16 9 E 1022,8 10 0,0
12.10.2019 16:00:00 25,0 19,0 16 9 E - 10 -
12.10.2019 15:00:00 25,0 19,0 16 9 E - 10 -
12.10.2019 14:00:00 25,3 18,2 13 7 ESE 1023,8 10 -
12.10.2019 13:00:00 26,0 18,0 13 7 E - 10 -
12.10.2019 12:00:00 25,0 17,0 11 6 E - 10 -
12.10.2019 11:00:00 24,8 18,2 2 1 - 1024,5 10 0,0
12.10.2019 10:00:00 22,0 18,0 8 4 OSO - 10 -
12.10.2019 09:00:00 20,0 18,0 8 4 OSO - 10 -
12.10.2019 08:00:00 17,5 16,8 4 2 OSO 1023,4 10 -
12.10.2019 07:00:00 17,0 16,0 9 5 OSO - 10 -
12.10.2019 06:00:00 17,0 16,0 5 3 OSO - 10 -
12.10.2019 05:00:00 17,4 16,8 5 3 SSO 1022,8 10 0,0
12.10.2019 04:00:00 18,0 17,0 9 5 OSO - 10 -
12.10.2019 03:00:00 19,0 18,0 8 4 OSO - 10 -
12.10.2019 02:00:00 19,0 17,7 9 5 OSO 1022,8 10 -
12.10.2019 01:00:00 19,0 18,0 8 4 SSO - 10 -
12.10.2019 00:00:00 22,0 18,0 5 3 N - 10 -
11.10.2019 23:00:00 22,0 17,7 8 4 N 1022,6 10 0,0
11.10.2019 22:00:00 23,0 19,0 11 6 ENE - 10 -
11.10.2019 21:00:00 23,0 19,0 11 6 NE - 10 -
11.10.2019 20:00:00 23,3 18,4 13 7 ENE 1021,6 10 -
11.10.2019 19:00:00 24,0 19,0 13 7 ENE - 10 -
11.10.2019 18:00:00 24,0 20,0 15 8 ENE - 10 -
11.10.2019 17:00:00 24,9 19,5 13 7 E 1020,7 10 0,0
11.10.2019 16:00:00 25,0 20,0 13 7 E - 10 -
11.10.2019 15:00:00 26,0 20,0 15 8 E - 10 -
11.10.2019 14:00:00 25,8 19,7 16 9 E 1021,2 10 -
11.10.2019 13:00:00 26,0 18,0 21 11 ENE - 10 -
11.10.2019 12:00:00 25,0 19,0 13 7 E - 10 -
11.10.2019 11:00:00 24,6 18,6 4 2 - 1021,5 10 0,0
11.10.2019 10:00:00 22,0 18,0 9 5 SO - 10 -
11.10.2019 09:00:00 19,0 17,0 9 5 SO - 10 -
11.10.2019 08:00:00 18,6 16,7 8 4 OSO 1019,6 10 -
11.10.2019 07:00:00 17,0 16,0 8 4 O - 10 -
11.10.2019 06:00:00 17,0 17,0 9 5 OSO - 10 -
11.10.2019 05:00:00 17,9 17,2 8 4 OSO 1018,7 10 0,0
11.10.2019 04:00:00 18,0 18,0 13 7 O - 10 -
11.10.2019 03:00:00 19,0 18,0 8 4 O - 10 -
11.10.2019 02:00:00 18,8 18,3 11 6 SO 1018,5 10 -
11.10.2019 01:00:00 19,0 19,0 9 5 SO - 10 -
11.10.2019 00:00:00 20,0 19,0 9 5 OSO - 10 -
10.10.2019 23:00:00 20,3 19,2 5 3 O 1018,7 10 0,0
10.10.2019 22:00:00 22,0 20,0 4 2 - - 10 -
10.10.2019 21:00:00 22,0 20,0 5 3 NE - 10 -
10.10.2019 20:00:00 21,9 19,9 9 5 E 1017,3 10 -
10.10.2019 19:00:00 22,0 20,0 9 5 E - 10 -
10.10.2019 18:00:00 23,0 20,0 13 7 ESE - 10 -
10.10.2019 17:00:00 23,5 19,8 18 10 E 1016,2 10 0,0
10.10.2019 16:00:00 24,0 20,0 16 9 E - 10 -
10.10.2019 15:00:00 25,0 19,0 11 6 E - 10 -
10.10.2019 14:00:00 23,8 18,4 11 6 E 1015,8 10 -
10.10.2019 13:00:00 24,0 19,0 8 4 - - 10 -
10.10.2019 12:00:00 24,0 20,0 15 8 E - 10 -
10.10.2019 11:00:00 21,3 19,6 5 3 OSO 1016,9 10 0,0
10.10.2019 10:00:00 20,0 19,0 8 4 OSO - 10 -
10.10.2019 09:00:00 20,0 18,0 4 2 - - 10 -
10.10.2019 08:00:00 19,6 17,4 16 9 NNE 1015,9 7 -
10.10.2019 07:00:00 21,0 20,0 5 3 E - 5 -
10.10.2019 06:00:00 22,0 20,0 8 4 NE - 7 -
10.10.2019 05:00:00 22,9 18,7 13 7 NE 1015,4 10 0,0
10.10.2019 04:00:00 23,0 19,0 21 11 NNE - 10 -
10.10.2019 03:00:00 22,0 19,0 15 8 NE - 10 -
10.10.2019 02:00:00 22,2 18,9 21 11 NE 1016,5 8 -
10.10.2019 01:00:00 22,0 19,0 28 15 NE - 10 -
10.10.2019 00:00:00 23,0 20,0 31 17 NE - 10 -
09.10.2019 23:00:00 20,6 18,6 15 8 NNE 1017,1 10 0,0
09.10.2019 22:00:00 23,0 19,0 31 17 ENE - 7 -
09.10.2019 21:00:00 24,0 21,0 29 16 ENE - 10 -
09.10.2019 20:00:00 23,4 21,0 28 15 ENE 1016,6 10 -
09.10.2019 19:00:00 24,0 21,0 24 13 NE - 8 -
09.10.2019 18:00:00 24,0 20,0 28 15 ENE - 10 -
09.10.2019 17:00:00 24,9 20,3 28 15 NE 1016,7 10 0,0
09.10.2019 16:00:00 25,0 19,0 28 15 NE - 10 -
09.10.2019 15:00:00 25,0 19,0 28 15 NE - 10 -
09.10.2019 14:00:00 24,3 18,6 28 15 NE 1017,9 10 -
09.10.2019 13:00:00 25,0 18,0 29 16 ENE - 10 -
09.10.2019 12:00:00 25,0 17,0 28 15 ENE - 10 -

tt = Temperatura
td = dewpoint
ff = velocità del vento
dd = direzione del vento
ppp = reduced air pressure
vv = visibility
rr = precipitazioni

Stazioni seguenti

WeatherPro
AMSI
MeteoEarth